Notices

What's New in latest Release from April 7th, 2021:

- Updated Glossary, including Speed of Maximum Gust, and Total Hourly Precipitation

- Updated national and regional climate services offices contacts and prices information

- Addition of station inventory lists for 1981-2010, 1971-2000, and 1961-1990 Normals.

If you haven't already, please take our survey and provide feedback about our website: https://eccc.sondage-survey.ca/f/LanguageSelection.aspx?s=442ca660-fcf1-47c0-95a9-59707d6fd709

Hourly Data Report for March 02, 2021

TORONTO CITY
ONTARIO
Current Station Operator: ECCC - MSC

43°40'00.000" N
79°24'00.000" W
112.50 m
6158355
71508
XTO

Download Data

Hourly Data (March 2021)
Hourly Data Report for March 2, 2021
TIME
LST
Temp Definition
°C
Dew Point Definition
°C
Rel Hum Definition
%
Precip. Amount Definition
mm

Wind Dir Definition
10's deg

Wind Spd Definition
km/h
Visibility Definition
km
Stn Press Definition
kPa
Hmdx Definition


Wind Chill Definition


Weather Definition


00:00 -8.9 -18.4 46 0.0       100.95     LegendNANA
01:00 -9.4 -17.0 54 0.0       101.02     LegendNANA
02:00 -11.2 -16.5 65 0.0       101.14     LegendNANA
03:00 -11.8 -17.3 64 0.0       101.20     LegendNANA
04:00 -12.2 -17.2 67 0.0       101.23     LegendNANA
05:00 -12.0 -16.8 68 0.0       101.26     LegendNANA
06:00 -12.5 -17.2 68 0.0       101.30     LegendNANA
07:00 -12.6 -17.8 66 0.0       101.30     LegendNANA
08:00 -11.6 -17.0 64 0.0       101.38     LegendNANA
09:00 -9.9 -17.1 56 0.0       101.38     LegendNANA
10:00 -9.3 -15.5 61 0.0       101.33     LegendNANA
11:00 -6.7 -14.1 56 0.0       101.23     LegendNANA
12:00 -5.7 -14.5 50 0.0       101.09     LegendNANA
13:00 -4.1 -12.1 54 0.0       101.00     LegendNANA
14:00 -3.0 -11.3 53 0.0       100.86     LegendNANA
15:00 -2.2 -10.0 55 0.0       100.72     LegendNANA
16:00 -1.9 -9.2 57 0.0       100.61     LegendNANA
17:00 -1.4 -8.1 60 0.0       100.49     LegendNANA
18:00 -1.3 -9.1 55 0.0       100.38     LegendNANA
19:00 -2.0 -11.5 48 0.0       100.28     LegendNANA
20:00 -1.8 -11.8 46 0.0       100.13     LegendNANA
21:00 -1.1 -10.8 48 0.0       99.98     LegendNANA
22:00 -0.3 -9.1 51 0.0       99.94     LegendNANA
23:00 0.3 -8.2 53 0.0       99.78     LegendNANA

Notes on Data Quality.

Legend

  • E = Estimated
  • M = Missing
  • NA = Not Available*
  • [empty] = Indicates an unobserved value
Date modified: